• In Deutschland
  • Länderverzeichnis
  • Für 7 Tage
  • Wassertemperatur
  • Satellitenkarten
  • Wetterkarte
  • Widgets
  • user-avatar
    Anmelden

    Stündliche Wetter Andora

    Heute, 16 Oktober, Dienstag

    Zeit Temperatur Niederschläge Wind Luftdruck Luftfeuchtigkeit
    00:00 +5°C° 0 mm 0 m/S 621 mmHg 92%
    01:00 +5°C° 0 mm 1 m/S 621 mmHg 91%
    02:00 +5°C° 0 mm 1 m/S 621 mmHg 90%
    03:00 +5°C° 0 mm 1 m/S 621 mmHg 89%
    04:00 +5°C° 0 mm 1 m/S 621 mmHg 89%
    05:00 +5°C° 0 mm 1 m/S 622 mmHg 88%
    06:00 +5°C° 0 mm 1 m/S 622 mmHg 88%
    07:00 +7°C° 0 mm 1 m/S 623 mmHg 82%
    08:00 +9°C° 0 mm 1 m/S 624 mmHg 76%
    09:00 +11°C° 0 mm 1 m/S 625 mmHg 71%
    10:00 +11°C° 0 mm 1 m/S 626 mmHg 69%
    11:00 +12°C° 0 mm 1 m/S 626 mmHg 66%
    12:00 +13°C° 0 mm 1 m/S 626 mmHg 64%
    13:00 +12°C° 0.1 mm 1 m/S 626 mmHg 67%
    14:00 +12°C° 0.1 mm 1 m/S 626 mmHg 70%
    15:00 +12°C° 0.1 mm 1 m/S 626 mmHg 73%
    16:00 +11°C° 0.2 mm 1 m/S 625 mmHg 79%
    17:00 +10°C° 0.2 mm 1 m/S 625 mmHg 85%
    18:00 +8°C° 0.2 mm 1 m/S 625 mmHg 90%
    19:00 +8°C° 0.1 mm 1 m/S 625 mmHg 91%
    20:00 +8°C° 0.1 mm 1 m/S 625 mmHg 92%
    21:00 +8°C° 0.1 mm 1 m/S 626 mmHg 92%
    22:00 +7°C° 0 mm 1 m/S 625 mmHg 92%
    23:00 +7°C° 0 mm 1 m/S 625 mmHg 91%

    Morgen, 17 Oktober, Mittwoch

    Zeit Temperatur Niederschläge Wind Luftdruck Luftfeuchtigkeit
    00:00 +6°C° 0 mm 1 m/S 625 mmHg 91%
    01:00 +6°C° 0 mm 1 m/S 625 mmHg 90%
    02:00 +6°C° 0 mm 1 m/S 624 mmHg 89%
    03:00 +6°C° 0 mm 1 m/S 624 mmHg 88%
    04:00 +6°C° 0 mm 1 m/S 624 mmHg 88%
    05:00 +6°C° 0 mm 1 m/S 624 mmHg 88%
    06:00 +6°C° 0 mm 1 m/S 624 mmHg 87%
    07:00 +8°C° 0 mm 1 m/S 625 mmHg 82%
    08:00 +9°C° 0 mm 1 m/S 625 mmHg 77%
    09:00 +11°C° 0 mm 1 m/S 626 mmHg 71%
    10:00 +12°C° 0 mm 1 m/S 626 mmHg 69%
    11:00 +13°C° 0 mm 1 m/S 626 mmHg 67%
    12:00 +13°C° 0 mm 2 m/S 626 mmHg 65%
    13:00 +13°C° 0.1 mm 1 m/S 626 mmHg 67%
    14:00 +13°C° 0.1 mm 1 m/S 625 mmHg 68%
    15:00 +12°C° 0.1 mm 1 m/S 625 mmHg 70%
    16:00 +11°C° 0.1 mm 1 m/S 624 mmHg 76%
    17:00 +10°C° 0.1 mm 1 m/S 624 mmHg 83%
    18:00 +7°C° 0.1 mm 0 m/S 623 mmHg 90%
    19:00 +7°C° 0.1 mm 0 m/S 623 mmHg 90%
    20:00 +8°C° 0.1 mm 1 m/S 623 mmHg 91%
    21:00 +8°C° 0.1 mm 1 m/S 623 mmHg 91%
    22:00 +8°C° 0.1 mm 1 m/S 623 mmHg 91%
    23:00 +7°C° 0.1 mm 1 m/S 623 mmHg 91%

    übermorgen, 18 Oktober, Donnerstag

    Zeit Temperatur Niederschläge Wind Luftdruck Luftfeuchtigkeit
    00:00 +7°C° 0.1 mm 1 m/S 622 mmHg 91%
    01:00 +7°C° 0.1 mm 1 m/S 622 mmHg 91%
    02:00 +7°C° 0.1 mm 1 m/S 622 mmHg 91%
    03:00 +7°C° 0.1 mm 1 m/S 622 mmHg 91%
    04:00 +7°C° 0.1 mm 1 m/S 622 mmHg 91%
    05:00 +7°C° 0.1 mm 1 m/S 622 mmHg 91%
    06:00 +7°C° 0.1 mm 1 m/S 622 mmHg 92%
    07:00 +8°C° 0.6 mm 1 m/S 622 mmHg 89%
    08:00 +9°C° 0.6 mm 1 m/S 623 mmHg 87%
    09:00 +10°C° 0.6 mm 1 m/S 624 mmHg 84%
    10:00 +10°C° 1.1 mm 1 m/S 624 mmHg 85%
    11:00 +10°C° 1.1 mm 1 m/S 624 mmHg 85%
    12:00 +10°C° 1.1 mm 1 m/S 624 mmHg 85%
    13:00 +9°C° 0.4 mm 2 m/S 623 mmHg 85%
    14:00 +9°C° 0.4 mm 2 m/S 623 mmHg 85%
    15:00 +9°C° 0.4 mm 2 m/S 623 mmHg 85%
    16:00 +9°C° 0.5 mm 2 m/S 623 mmHg 87%
    17:00 +8°C° 0.5 mm 2 m/S 623 mmHg 89%
    18:00 +8°C° 0.5 mm 2 m/S 623 mmHg 91%
    19:00 +8°C° 0.5 mm 2 m/S 623 mmHg 91%
    20:00 +8°C° 0.5 mm 2 m/S 623 mmHg 91%
    21:00 +8°C° 0.5 mm 2 m/S 624 mmHg 91%
    22:00 +8°C° 0.2 mm 2 m/S 624 mmHg 91%
    23:00 +7°C° 0.2 mm 2 m/S 624 mmHg 90%

    19 Oktober, Freitag

    Zeit Temperatur Niederschläge Wind Luftdruck Luftfeuchtigkeit
    00:00 +7°C° 0.2 mm 2 m/S 624 mmHg 90%
    01:00 +7°C° 0 mm 2 m/S 624 mmHg 90%
    02:00 +7°C° 0 mm 2 m/S 624 mmHg 90%
    03:00 +7°C° 0 mm 2 m/S 623 mmHg 91%
    04:00 +6°C° 0 mm 2 m/S 624 mmHg 91%
    05:00 +6°C° 0 mm 2 m/S 624 mmHg 91%
    06:00 +6°C° 0 mm 2 m/S 624 mmHg 91%
    07:00 +8°C° 0 mm 2 m/S 625 mmHg 86%
    08:00 +9°C° 0 mm 2 m/S 626 mmHg 81%
    09:00 +12°C° 0 mm 2 m/S 627 mmHg 76%
    10:00 +13°C° 0 mm 2 m/S 627 mmHg 72%
    11:00 +14°C° 0 mm 2 m/S 627 mmHg 68%
    12:00 +15°C° 0 mm 2 m/S 628 mmHg 64%
    13:00 +15°C° 0.3 mm 2 m/S 628 mmHg 66%
    14:00 +14°C° 0.3 mm 2 m/S 628 mmHg 67%
    15:00 +14°C° 0.3 mm 2 m/S 627 mmHg 69%
    16:00 +13°C° 0.4 mm 2 m/S 627 mmHg 76%
    17:00 +11°C° 0.4 mm 1 m/S 627 mmHg 83%
    18:00 +10°C° 0.4 mm 1 m/S 627 mmHg 89%
    19:00 +10°C° 0.2 mm 1 m/S 627 mmHg 90%
    20:00 +9°C° 0.2 mm 1 m/S 627 mmHg 91%
    21:00 +9°C° 0.2 mm 1 m/S 627 mmHg 92%
    22:00 +9°C° 0 mm 1 m/S 627 mmHg 91%
    23:00 +9°C° 0 mm 1 m/S 627 mmHg 91%

    20 Oktober, Samstag

    Zeit Temperatur Niederschläge Wind Luftdruck Luftfeuchtigkeit
    00:00 +8°C° 0 mm 1 m/S 627 mmHg 90%
    01:00 +8°C° 0 mm 1 m/S 627 mmHg 90%
    02:00 +8°C° 0 mm 1 m/S 627 mmHg 90%
    03:00 +8°C° 0 mm 1 m/S 627 mmHg 89%
    04:00 +8°C° 0 mm 1 m/S 627 mmHg 89%
    05:00 +8°C° 0 mm 1 m/S 627 mmHg 90%
    06:00 +7°C° 0 mm 1 m/S 627 mmHg 90%
    07:00 +9°C° 0 mm 1 m/S 628 mmHg 84%
    08:00 +11°C° 0 mm 1 m/S 629 mmHg 79%
    09:00 +12°C° 0 mm 1 m/S 630 mmHg 73%
    10:00 +13°C° 0.2 mm 1 m/S 630 mmHg 71%
    11:00 +14°C° 0.2 mm 1 m/S 631 mmHg 68%
    12:00 +14°C° 0.2 mm 1 m/S 631 mmHg 65%
    13:00 +14°C° 0.8 mm 1 m/S 631 mmHg 68%
    14:00 +14°C° 0.8 mm 1 m/S 630 mmHg 71%
    15:00 +13°C° 0.8 mm 1 m/S 630 mmHg 73%
    16:00 +12°C° 0.8 mm 1 m/S 630 mmHg 79%
    17:00 +11°C° 0.8 mm 1 m/S 629 mmHg 85%
    18:00 +9°C° 0.8 mm 0 m/S 629 mmHg 90%
    19:00 +8°C° 0.2 mm 0 m/S 629 mmHg 91%
    20:00 +9°C° 0.2 mm 1 m/S 629 mmHg 91%
    21:00 +9°C° 0.2 mm 1 m/S 629 mmHg 92%
    22:00 +9°C° 0 mm 1 m/S 629 mmHg 91%
    23:00 +8°C° 0 mm 1 m/S 629 mmHg 91%

    21 Oktober, Sonntag

    Zeit Temperatur Niederschläge Wind Luftdruck Luftfeuchtigkeit
    00:00 +8°C° 0 mm 1 m/S 629 mmHg 90%
    01:00 +8°C° 0 mm 1 m/S 629 mmHg 90%
    02:00 +7°C° 0 mm 1 m/S 628 mmHg 89%
    03:00 +7°C° 0 mm 1 m/S 628 mmHg 88%
    04:00 +7°C° 0 mm 1 m/S 628 mmHg 88%
    05:00 +7°C° 0 mm 1 m/S 628 mmHg 87%
    06:00 +7°C° 0 mm 1 m/S 629 mmHg 86%
    07:00 +9°C° 0 mm 1 m/S 629 mmHg 80%
    08:00 +10°C° 0 mm 1 m/S 630 mmHg 74%
    09:00 +12°C° 0 mm 1 m/S 631 mmHg 68%
    10:00 +13°C° 0.1 mm 1 m/S 631 mmHg 64%
    11:00 +14°C° 0.1 mm 2 m/S 632 mmHg 61%
    12:00 +15°C° 0.1 mm 2 m/S 632 mmHg 58%
    13:00 +15°C° 0.3 mm 2 m/S 632 mmHg 60%
    14:00 +14°C° 0.3 mm 2 m/S 631 mmHg 63%
    15:00 +14°C° 0.3 mm 2 m/S 631 mmHg 65%
    16:00 +12°C° 0.2 mm 1 m/S 630 mmHg 72%
    17:00 +11°C° 0.2 mm 1 m/S 630 mmHg 79%
    18:00 +9°C° 0.2 mm 1 m/S 630 mmHg 85%
    19:00 +9°C° 0.1 mm 1 m/S 630 mmHg 86%
    20:00 +9°C° 0.1 mm 1 m/S 630 mmHg 87%
    21:00 +8°C° 0.1 mm 1 m/S 630 mmHg 87%
    22:00 +8°C° 0 mm 1 m/S 629 mmHg 87%
    23:00 +8°C° 0 mm 1 m/S 629 mmHg 87%
    Mehr zeigen